"Pseudo-MPEC" for ZTF05fJ

Created 2019 Aug 18 18:07:06 UT using Find_Orb

Click here for an explanation of pseudo-MPECs

 
 Astrometry: 
     ZTF05fJ  C2019 08 08.33777020 57 19.95 +18 30 46.9    ~8ALb 20.84rUNEOCPI41
     ZTF05fJ  C2019 08 08.40516020 57 17.73 +18 30 45.0    ~8ALb 20.70rUNEOCPI41
     ZTF05fJ  C2019 08 09.23293120 56 50.78 +18 30 17.8    ~8ALb 20.61rUNEOCPI41
     ZTF05fJ  C2019 08 09.33781920 56 47.30 +18 30 14.0    ~8ALb 20.75rUNEOCPI41
     ZTF05fJ  C2019 08 09.34604120 56 47.00 +18 30 13.8    ~8ALb 20.73rUNEOCPI41
     ZTF05fJ KC2019 08 10d_w2_Zo$n8s*lw?bh0UB@\[bp4;8j#AhU^tI:2wDXNcuqMP9nfNVL01
     ZTF05fJ KC2019 08 107qO[;Q86Astrometry@UlXOorlredacted;NAYI8-S+U@Y1Wu\,0L01
     ZTF05fJ pC2019 08 10w7#gWXYiaOaWAW`k/.x=9S]LnHT2Qkclick5#Gxlc'.heret?Z?0L01
     ZTF05fJ IC2019 08 17DM.aAfor;xmYlo3\dkK]Hs[o6bW0dvE]-ieo*`1(SDN#XN9vsdYvL01
     ZTF05fJ KC2019 08 17]nkMexplanation0H^Ox)2+LQ!V7f^E0fB:;?g%Rc=G.j10(`/1ML01

Station data:
(I41) Palomar Mountain--ZTF  (N33.357340 W116.859780)  US/California. 1.2-m
   f/2.44 Oschin Schmidt + CCD.
(L01) Višnjan Observatory, Tičan  (N45.290900 E13.749300)  Croatia.
   Observers K. Korlević, E. Pettarin. Measurer E. Pettarin. 1.0-m f/2.9
   reflector + CCD.

Orbital elements:  ZTF05fJ
   Perihelion 2022 Feb 10.789049 +/- 675 TT = 18:56:13 (JD 2459621.289049)
Epoch 2019 Aug 17.0 TT = JDT 2458712.5   Ju: 0.0089           AutoNEOCP
M 285.10438779 +/- 55               (J2000 ecliptic)
n   0.08241253 +/- 0.000601         Peri.  147.63424 +/- 58
a   5.22966483 +/- 0.0254           Node   256.10089 +/- 0.47
e   0.0327107 +/- 0.0263            Incl.   30.21494 +/- 0.11
P  11.96                   H 14.0   G  0.15   U  8.2  
q 5.05859858 +/- 0.133    Q 5.40073108 +/- 0.147
From 10 observations 2019 Aug. 8-17; mean residual 0".28
Residuals in arcseconds: 
190808 I41  .08-  .06-    190809 I41  .31-  .06+    190817 L01  .30+  .13+    
190808 I41  .34+  .07+    190810 L01  .77+  .32-    190817 L01  .30-  .13-    
190809 I41  .21-  .01-    190810 L01  .57-  .32+    
190809 I41  .06+  .05-    190810 L01  .04-  .01-    

Ephemerides (geocentric):
Date (UTC) HH   RA              Dec         delta   r     elong  mag " sig PA
---- -- -- --  -------------   -----------  ------ ------ -----  --- ---- ---
2019 08 18 18  20 51 45.738   +18 18 41.28  4.3244 5.1900 145.5 21.3 .273 170
2019 08 18 19  20 51 44.441   +18 18 36.73  4.3244 5.1899 145.4 21.3 .284 170
2019 08 18 20  20 51 43.144   +18 18 32.16  4.3245 5.1899 145.4 21.3 .294 170
2019 08 18 21  20 51 41.847   +18 18 27.59  4.3245 5.1899 145.4 21.3 .305 170
2019 08 18 22  20 51 40.551   +18 18 22.99  4.3245 5.1899 145.4 21.3 .316 170
2019 08 18 23  20 51 39.256   +18 18 18.39  4.3246 5.1899 145.4 21.3 .326 170
2019 08 19 00  20 51 37.960   +18 18 13.77  4.3246 5.1899 145.4 21.3 .337 170
2019 08 19 01  20 51 36.666   +18 18 09.15  4.3247 5.1899 145.4 21.3 .348 170
2019 08 19 02  20 51 35.371   +18 18 04.51  4.3247 5.1899 145.4 21.3 .359 170
2019 08 19 03  20 51 34.077   +18 17 59.85  4.3247 5.1899 145.4 21.3 .370 169
2019 08 19 04  20 51 32.784   +18 17 55.19  4.3248 5.1899 145.4 21.3 .382 169
2019 08 19 05  20 51 31.491   +18 17 50.51  4.3248 5.1898 145.4 21.3 .393 169
2019 08 19 06  20 51 30.199   +18 17 45.82  4.3249 5.1898 145.4 21.3 .404 169
2019 08 19 07  20 51 28.907   +18 17 41.11  4.3249 5.1898 145.4 21.3 .416 169
2019 08 19 08  20 51 27.615   +18 17 36.40  4.3249 5.1898 145.4 21.3 .427 169
2019 08 19 09  20 51 26.324   +18 17 31.67  4.3250 5.1898 145.4 21.3 .439 169
2019 08 19 10  20 51 25.033   +18 17 26.93  4.3250 5.1898 145.4 21.3 .451 169
2019 08 19 11  20 51 23.743   +18 17 22.17  4.3251 5.1898 145.4 21.3 .462 169
2019 08 19 12  20 51 22.454   +18 17 17.41  4.3251 5.1898 145.4 21.3 .474 169
2019 08 19 13  20 51 21.164   +18 17 12.63  4.3252 5.1898 145.4 21.3 .486 169
2019 08 19 14  20 51 19.876   +18 17 07.84  4.3252 5.1898 145.3 21.3 .498 169
2019 08 19 15  20 51 18.587   +18 17 03.03  4.3253 5.1897 145.3 21.3 .510 169
2019 08 19 16  20 51 17.299   +18 16 58.22  4.3253 5.1897 145.3 21.3 .522 169
2019 08 19 17  20 51 16.012   +18 16 53.39  4.3254 5.1897 145.3 21.3 .535 169
2019 08 19 18  20 51 14.725   +18 16 48.55  4.3254 5.1897 145.3 21.3 .547 169
2019 08 19 19  20 51 13.439   +18 16 43.70  4.3254 5.1897 145.3 21.3 .559 169
2019 08 19 20  20 51 12.153   +18 16 38.83  4.3255 5.1897 145.3 21.3 .572 169
2019 08 19 21  20 51 10.868   +18 16 33.95  4.3255 5.1897 145.3 21.3 .585 169
2019 08 19 22  20 51 09.583   +18 16 29.06  4.3256 5.1897 145.3 21.3 .597 169
2019 08 19 23  20 51 08.298   +18 16 24.16  4.3256 5.1897 145.3 21.3 .610 169
2019 08 20 00  20 51 07.014   +18 16 19.25  4.3257 5.1897 145.3 21.3 .623 168
2019 08 20 01  20 51 05.731   +18 16 14.32  4.3257 5.1896 145.3 21.3 .636 168
2019 08 20 02  20 51 04.448   +18 16 09.38  4.3258 5.1896 145.3 21.3 .649 168
2019 08 20 03  20 51 03.165   +18 16 04.43  4.3258 5.1896 145.3 21.3 .662 168
2019 08 20 04  20 51 01.883   +18 15 59.46  4.3259 5.1896 145.3 21.3 .675 168
2019 08 20 05  20 51 00.602   +18 15 54.49  4.3259 5.1896 145.3 21.3 .688 168
2019 08 20 06  20 50 59.321   +18 15 49.50  4.3260 5.1896 145.2 21.3 .702 168
2019 08 20 07  20 50 58.040   +18 15 44.50  4.3261 5.1896 145.2 21.3 .715 168
2019 08 20 08  20 50 56.760   +18 15 39.48  4.3261 5.1896 145.2 21.3 .729 168
2019 08 20 09  20 50 55.481   +18 15 34.46  4.3262 5.1896 145.2 21.3 .742 168
2019 08 20 10  20 50 54.202   +18 15 29.42  4.3262 5.1896 145.2 21.3 .756 168
2019 08 20 11  20 50 52.923   +18 15 24.37  4.3263 5.1895 145.2 21.3 .769 168
2019 08 20 12  20 50 51.645   +18 15 19.31  4.3263 5.1895 145.2 21.3 .783 168
2019 08 20 13  20 50 50.368   +18 15 14.23  4.3264 5.1895 145.2 21.3 .797 168
2019 08 20 14  20 50 49.091   +18 15 09.15  4.3264 5.1895 145.2 21.3 .811 168
2019 08 20 15  20 50 47.814   +18 15 04.05  4.3265 5.1895 145.2 21.3 .825 168
2019 08 20 16  20 50 46.538   +18 14 58.94  4.3265 5.1895 145.2 21.3 .839 168
2019 08 20 17  20 50 45.263   +18 14 53.81  4.3266 5.1895 145.2 21.3 .854 168